www.pogodaiklimat.ru

Погода и климат >> Архив погоды >> Россия >> Якутия >> Иэма


ПОГОДА в Иэме

  • Прогноз погоды в Иэме
  • Монитор погоды в Иэме
  • Климат города

АРХИВ ПОГОДЫ в Иэме

Время (UTC), дата Ветер
(напр.,м/с)
 
Видим.   Явления Облачность Т
(С)
Тd
(С)
f
(%)
Тe
(С)
Тes
(С)
Комфортность P
(гПа)
Po
(гПа)
Тmin
(С)
Tmax
(С)
R
(мм)
R24
(мм)
S
(см)
00 20.05 ЮВ 4 50 км 10/10 600 м
[Sc]
+5.0 -3.6 54 +1 +1 1005.3 926.0
03 20.05 Ю 5 50 км 10/4 600 м
[Sc As op]
+7.5 -2.2 50 +4 +5 1002.1 923.7
06 20.05 ЮЗ 1 20 км слабый снег 10/10 300 м
[Frnb Ns]
+2.6 +1.0 89 +1 +1 1003.5 923.7
09 20.05 ЮВ 1 20 км слабый дождь 10/10 300 м
[Frnb Ns]
+2.4 +0.8 89 +1 +1 1002.8 923.0 +7.5 4
12 20.05 З 6 20 км слабый дождь со снегом 10/0 600 м
[As op]
+0.1 -0.9 93 -7 -7 1005.0 924.4
15 20.05 З 6 20 км слабый дождь 10/0
[As op]
+0.6 -0.8 90 -6 -6 1007.7 927.0
18 20.05 З 5 50 км {дождь} 10/6 600 м
[Sc As op]
+0.6 -1.4 86 -5 -5 1009.7 928.9
21 20.05 ЮЗ 2 50 км 9/0
[As op]
+0.8 -2.8 77 -3 -2 1011.2 930.3 -0.7 3
00 21.05 СЗ 5 50 км 9/6 600 м
[Sc As op]
+1.3 -3.5 70 -4 -3 1011.9 931.1
03 21.05 З 4 10 км снег 10/0 600 м
[As op]
+0.3 -1.1 90 -5 -4 1013.0 931.8
06 21.05 З 9-10
{11}
50 км {снег} 9/0 600 м
[As op]
+1.5 -4.3 65 -5 -5 1012.7 931.8
09 21.05 С 6 50 км 9/9 300 м
[Frnb]
+0.9 -3.7 71 -5 -5 1013.2 932.2 +1.5 0.3
12 21.05 СЗ 3 50 км 9/6 300 м
[Sc diur, vesp Cs]
-1.0 -5.6 71 -6 -6 1014.1 932.4
15 21.05 СЗ 1 50 км 8/0
[Cs]
-2.5 -6.2 76 -5 -5 1014.2 932.1
18 21.05 З 4 50 км 9/4 600 м
[Sc As trans Cs]
-1.7 -4.4 82 -7 -7 1013.6 931.7
21 21.05 СЗ 3 50 км 10/4 600 м
[Sc Ac und]
-1.9 -5.0 79 -7 -6 1013.6 931.6 -2.9
00 22.05 СЗ 2 50 км 10/10 600 м
[Sc]
-0.6 -4.4 75 -4 -4 1012.8 931.3
03 22.05 СЗ 3 50 км 10/10 600 м
[Sc]
+1.3 -4.2 67 -3 -3 1011.7 930.9
06 22.05 ЮЗ 1 50 км 9/9 600 м
[Sc diur, vesp]
+2.9 -3.6 62 +2 +3 1010.0 929.8
09 22.05 З 1 50 км 6/6 600 м
[Sc]
+4.5 -3.6 56 +4 +5 1009.0 929.3 +4.5
12 22.05 СВ 1 50 км ясно +3.8 -5.8 49 +3 +3 1009.1 929.2
15 22.05 СВ 1 50 км ясно -1.8 -6.7 69 -4 -4 1011.1 929.4
18 22.05 СВ 1 50 км 3/0
[Ci fib]
-6.1 -8.0 86 -8 -8 1012.7 929.4
21 22.05 В 3 50 км ясно +2.5 -4.5 60 -1 +1 1010.0 929.6 -7.3
00 23.05 В 4 50 км ясно +4.9 -3.4 55 +1 +7 1008.9 929.3
03 23.05 ЮВ 4 50 км 6/0
[Ci fib]
+9.2 -3.2 42 +7 +14 1006.4 928.1
06 23.05 ЮВ 2 50 км 3/0
[Ci fib]
+11.3 -3.2 36 +11 +18 1005.0 927.4
09 23.05 ЮВ 3 50 км ясно +11.4 -4.2 33 +10 +12 1004.5 926.9 +12.7
12 23.05 В 1 50 км 9/0
[Ci fib]
+8.3 -4.7 39 +8 +8 1005.1 926.6
15 23.05 СВ 1 50 км 3/0
[Ci fib]
+3.9 -4.8 53 +3 +3 1006.9 927.2
18 23.05 ЮВ 1 50 км 8/0
[Cs]
+0.5 -6.5 59 -1 -1 1009.3 928.4
21 23.05 СЗ 1 50 км 10/0
[Cs]
+1.5 -2.9 73 0 +2 1010.9 929.0 -1.6
00 24.05 З 2 50 км 9/0
[Cs]
+5.7 -1.9 58 +4 +11 1008.4 929.1
03 24.05 З 1 50 км 8/0
[Cs]
+10.6 -0.3 47 +11 +22 опасность
простуды
1006.5 928.6
06 24.05 З 2 50 км 4/0
[Cs]
+12.6 -1.0 39 +12 +20 1005.6 928.3
09 24.05 З 1 50 км 3/0
[Ci fib]
+15.8 -0.2 34 +17 +19 1002.4 928.0 +15.8
12 24.05 СЗ 3 50 км 4/0
[Ci fib]
+8.0 -1.8 50 +6 +6 1008.3 928.7
15 24.05 штиль 0 50 км 3/0
[Ci fib]
+0.6 -4.8 67 -0 -0 1010.3 929.4
18 24.05 В 1 50 км 3/0
[Ci fib]
-3.0 -5.0 86 -5 -5 1012.3 930.2
21 24.05 штиль 0 50 км ясно +2.5 -4.1 62 +2 +5 1011.1 930.6 -3.4
00 25.05 ЮВ 1 50 км ясно +7.3 -2.5 50 +7 +17 опасность
простуды
1009.3 930.4
03 25.05 ЮВ 2 50 км ясно +16.4 +0.2 33 +17 +28 1006.2 929.8
06 25.05 З 2 50 км ясно +15.9 +1.0 36 +16 +24 1005.5 929.2
09 25.05 СЗ 5 50 км ясно +14.2 +0.3 39 +13 +14 1005.8 928.9 +17.1
12 25.05 З 4 50 км 3/0
[Ci fib]
+8.7 -1.1 50 +6 +6 1007.7 929.2
15 25.05 штиль 0 50 км 6/0
[Cs]
+4.0 -1.5 67 +3 +3 1009.7 929.8
18 25.05 штиль 0 50 км 3/0
[Cs]
+1.4 -1.1 83 0 0 1011.4 930.6
21 25.05 штиль 0 50 км ясно +8.4 +1.9 64 +8 +12 1010.1 931.4 +0.5
00 26.05 СЗ 8-10
{1}
50 км 5/0
[Cc]
+10.1 +0.6 52 +7 +8 1009.3 931.1
03 26.05 СЗ 7-11
{10}
50 км 4/3 600 м
[Sc Ac trans Ci fib]
+11.8 +1.7 50 +9 +11 1008.7 931.0
06 26.05 СЗ 7-10
{11}
50 км 6/5 600 м
[Sc Ac trans Ci fib]
+11.5 +0.4 46 +9 +10 1008.3 930.5
09 26.05 СЗ 5 50 км 8/4 600 м
[Sc Ci fib]
+11.0 +0.9 50 +9 +9 1009.0 931.1 +12.7
12 26.05 СЗ 1 50 км 3/1 600 м
[Sc As trans Cs]
+7.5 -0.8 56 +7 +7 1010.2 931.2
15 26.05 штиль 0 50 км 6/0
[Cc]
+1.4 -2.1 77 +1 +1 1012.0 931.2
18 26.05 штиль 0 50 км 8/4 600 м
[Sc Ac trans Cs]
-1.7 -2.6 94 -3 -3 1012.8 931.0
21 26.05 штиль 0 50 км 8/3 600 м
[Sc Cs]
+0.5 -1.5 86 -1 +2 1012.0 930.9 -1.9

 

Местоположение метеостанции Иэма (Якутия, Россия): широта 65.30 долгота 135.80 высота над уровнем моря 675 м.

В архиве по умолчанию представлена погода в Иэме за последнюю неделю. Архивные данные за месяц целиком и за предыдущие месяцы, начиная с января 2011 года, Вы можете получить, выбрав интересующий диапазон дат из раскрывающегося списка и нажав кнопку "Ввод!".


*Определитесь, кто Вы:
робот инопланетянин человек

Внимание! Время в таблицах - всемирное. Для получения местного времени необходимо прибавить поправку, которая в Иэме равна 9 ч.

Смотрите также архив погоды в соседних городах и на ближайших метеорологических станциях:

Погода в Томпо (Якутия, Россия) (150 км)
Погода в Усть-Чарках (Якутия, Россия) (171 км)
Погода в Екюччю (Якутия, Россия) (250 км)
Погода в Батагае (Якутия, Россия) (267 км)
Погода в Себян-Кюеле (Якутия, Россия) (269 км)
Погода в Верхоянске (Якутия, Россия) (274 км)
Погода в Крест-Хальджае (Якутия, Россия) (284 км)
Погода в Теплом Ключе (Якутия, Россия) (284 км)
Погода в Верхоянском Перевозе (Якутия, Россия) (286 км)
Погода в Восточной (Якутия, Россия) (294 км)

Пояснения к столбцам:

Ветер - указаны скорость ветра в м/с - средняя за 10 мин, порывы в срок и между сроками (в фигурных скобках) и направление, откуда дует ветер: С - северный, СВ - северо-восточный, В - восточный, ЮВ - юго-восточный, Ю - южный, ЮЗ - юго-западный, З - западный, СЗ - северо-западный.
Видимость - горизонтальная дальность видимости в метрах или километрах. При видимости от 1 до 10 км при отсутствии осадков обычно наблюдается дымка, при ухудшении видимости до 1 км и менее - туман. В сухую погоду видимость может ухудшаться дымом, пылью или мглою.
Явления - указаны атмосферные явления, наблюдавшиеся в срок или в последний час перед сроком; фигурными скобками обозначены явления, наблюдавшиеся между сроками (за 1-3 часа до срока); квадратными скобками обозначены град или гололедные отложения с указанием их диаметра в мм.
Облачность - указаны через наклонную черту общая и нижняя облачность в баллах и высота нижней границы облаков в метрах; квадратными скобками обозначены формы облаков: Ci - перистые, Cs - перисто-слоистые, Cc - перисто-кучевые, Ac - высококучевые, As - высокослоистые, Sc - слоисто-кучевые, Ns - слоисто-дождевые, Cu - кучевые, Cb - кучево-дождевые. Подробнее классификацию облаков см. в Атласе облаков (PDF).
T - Температура воздуха - температура, измеренная на высоте 2 м над землей.
Td - Температура точки росы - температура, при понижении до которой содержащийся в воздухе водяной пар достигнет насыщения.
f - Относительная влажность воздуха - влажноcть воздуха, измеренная на высоте 2 м над землей.
Te - Эффективная температура - температура, которую ощущает одетый по сезону человек в тени. Характеристика душности погоды. При расчете учитывается влияние влажности воздуха и скорости ветра на теплоощущения человека.
Tes - Эффективная температура на солнце - температура, которую ощущает человек, с поправкой на солнечный нагрев. Характеристика знойности погоды. Зависит от высоты солнца над горизонтом, облачности и скорости ветра. Ночью, в пасмурную погоду, а также при ветре 12 м/с и более поправка равна нулю.
P - Атмосферное давление - приведенное к уровню моря атмосферное давление.
Po - Атмосферное давление - измеренное на уровне метеостанции атмосферное давление.
Tmin - Минимальная температура - минимум температуры воздуха на высоте 2 м над землей.
Tmax - Максимальная температура - максимум температуры воздуха на высоте 2 м над землей.
R - Количество осадков - Количество выпавших осадков за период времени, мм. При наведении курсора мыши на число - период времени, за который выпало указанное количество осадков.
R24 - Количество осадков - Количество выпавших осадков за 24 часа, мм.
S - Снежный покров - Высота снежного покрова, см. При наведении курсора мыши на число - состояние снежного покрова и степень покрытия местности в баллах.